Overview Statistics Trail Chart Weather Telemetry Raw packets
 

This is the latest recevied weather packets stored in our database for station/object KI6SYE. If no packets are shown the sender has not sent any weather packets the latest 10 day(s).

<< 87 88 89 90 91 92 93 >>
Time Temp. Humidity Pressure Rain* Wind** Luminosity Snow
1788038127 26.11° C 83% 1011.1 hPa 0 mm - 670 W/m² -
1788037827 25.56° C 84% 1011.2 hPa 0 mm - 677 W/m² -
1788037521 25.56° C 84% 1011.5 hPa 0 mm - 690 W/m² -
1788037221 25.56° C 83% 1011.4 hPa 0 mm - 716 W/m² -
1788036916 26.11° C 82% 1011.4 hPa 0 mm - 737 W/m² -
1788036613 25.56° C 82% 1011.8 hPa 0 mm - 731 W/m² -
1788036309 26.11° C 83% 1011.5 hPa 0 mm - 725 W/m² -
1788036003 26.67° C 82% 1011.5 hPa 0 mm - 721 W/m² -
1788035703 26.11° C 83% 1011.7 hPa 0 mm - 721 W/m² -
1788035398 26.11° C 83% 1012 hPa 0 mm - 720 W/m² -
1788035093 27.22° C 78% 1011.6 hPa 0 mm - 727 W/m² -
1788034789 27.22° C 76% 1011.8 hPa 0 mm - 730 W/m² -
1788034486 26.67° C 77% 1011.7 hPa 0 mm - 739 W/m² -
1788034182 27.22° C 77% 1011.8 hPa 0 mm - 754 W/m² -
1788033880 26.67° C 78% 1012 hPa 0 mm - 766 W/m² -
1788033580 26.67° C 81% 1012 hPa 0 mm - 791 W/m² -
1788033274 25.56° C 84% 1012 hPa 0 mm - 566 W/m² -
1788032971 26.11° C 83% 1011.7 hPa 0 mm - 930 W/m² -
1788032670 26.11° C 81% 1011.7 hPa 0 mm - 847 W/m² -
1788032365 26.67° C 78% 1011.7 hPa 0 mm - 304 W/m² -
1788032060 27.22° C 77% 1011.5 hPa 0 mm - 932 W/m² -
1788031755 26.67° C 76% 1011.7 hPa 0 mm - 791 W/m² -
1788031449 27.22° C 74% 1011.7 hPa 0 mm - 784 W/m² -
1788031157 27.22° C 75% 1011.8 hPa 0 mm - 755 W/m² -
1788030843 26.67° C 75% 1011.8 hPa 0 mm - 791 W/m² -

* Rain latest hour (hover to see other rain measurements)
** Current wind speed in m/s (hover to see current wind gust speed)